TimeEDT,TemperatureF,Dew PointF,Humidity,Sea Level PressureIn,VisibilityMPH,Wind Direction,Wind SpeedMPH,Gust SpeedMPH,PrecipitationIn,Events,Conditions,WindDirDegrees,DateUTC
12:55 AM,72.7,64.0,74,30.14,10.0,ENE,6.9,-,N/A,,Scattered Clouds,60,2012-10-12 04:55:00
1:55 AM,73.4,63.9,72,30.14,10.0,ENE,6.9,-,N/A,,Mostly Cloudy,60,2012-10-12 05:55:00
2:55 AM,72.3,63.3,73,30.12,10.0,ENE,6.9,-,N/A,,Scattered Clouds,60,2012-10-12 06:55:00
3:55 AM,71.6,63.1,75,30.11,10.0,ENE,5.8,-,N/A,,Scattered Clouds,60,2012-10-12 07:55:00
4:55 AM,72.3,62.6,71,30.11,10.0,ENE,5.8,-,N/A,,Partly Cloudy,60,2012-10-12 08:55:00
5:55 AM,71.8,63.1,74,30.12,10.0,NE,6.9,-,N/A,,Scattered Clouds,50,2012-10-12 09:55:00
6:55 AM,72.3,63.3,73,30.14,10.0,NE,6.9,-,N/A,,Partly Cloudy,50,2012-10-12 10:55:00
7:55 AM,73.2,63.5,71,30.15,10.0,ENE,8.1,-,N/A,,Partly Cloudy,60,2012-10-12 11:55:00
8:55 AM,77.4,63.9,63,30.16,10.0,ENE,10.4,17.3,N/A,,Partly Cloudy,60,2012-10-12 12:55:00
9:55 AM,79.3,63.7,59,30.19,10.0,NE,9.2,-,N/A,,Partly Cloudy,40,2012-10-12 13:55:00
10:55 AM,80.6,64.0,57,30.19,10.0,NE,11.5,-,N/A,,Clear,40,2012-10-12 14:55:00
11:55 AM,81.1,66.4,61,30.19,10.0,NNE,16.1,21.9,N/A,,Mostly Cloudy,20,2012-10-12 15:55:00
12:55 PM,81.3,66.9,61,30.18,10.0,NNE,15.0,21.9,N/A,,Clear,20,2012-10-12 16:55:00
1:55 PM,81.5,66.0,59,30.15,10.0,NNE,15.0,-,N/A,,Clear,20,2012-10-12 17:55:00
2:55 PM,81.5,65.7,58,30.13,10.0,NNE,13.8,-,N/A,,Clear,30,2012-10-12 18:55:00
3:55 PM,80.8,65.3,59,30.12,10.0,NNE,10.4,-,N/A,,Clear,30,2012-10-12 19:55:00
4:55 PM,79.9,65.7,62,30.12,10.0,NNE,9.2,-,N/A,,Clear,20,2012-10-12 20:55:00
5:55 PM,77.7,64.6,64,30.14,10.0,North,12.7,-,N/A,,Partly Cloudy,10,2012-10-12 21:55:00
6:55 PM,74.5,62.4,66,30.14,10.0,North,9.2,-,N/A,,Clear,10,2012-10-12 22:55:00
7:55 PM,73.4,63.3,71,30.15,10.0,NNE,9.2,-,N/A,,Clear,20,2012-10-12 23:55:00
8:55 PM,73.4,63.7,71,30.17,10.0,NNE,9.2,-,N/A,,Clear,30,2012-10-13 00:55:00
9:55 PM,73.9,64.0,71,30.18,10.0,NE,8.1,-,N/A,,Partly Cloudy,40,2012-10-13 01:55:00
10:55 PM,73.9,64.4,72,30.17,10.0,NNE,11.5,-,N/A,,Clear,30,2012-10-13 02:55:00
11:55 PM,74.5,64.8,72,30.17,10.0,NNE,9.2,-,N/A,,Mostly Cloudy,30,2012-10-13 03:55:00